When you browse on this site, cookies collect data to enhance your experience and personalize the content and advertising you see.
Visit our Privacy Policy to learn more. By continuing to use the site, you agree to this use of cookies and data.
  • In Sweden
  • List of Countries
  • For 7 days
  • Water Temperature
  • Satellite Maps
  • Weather Map
  • Weather Widgets
  • user-avatar
    Login

    Hourly Weather Parcela

    Today, 24 April, Wednesday

    Time Temperature Precipitation Wind Pressure Humidity
    00:00 +10°C° 0 mm 7 mps 754 mmHg 57%
    01:00 +10°C° 0 mm 6 mps 754 mmHg 59%
    02:00 +9°C° 0 mm 7 mps 754 mmHg 59%
    03:00 +9°C° 0 mm 7 mps 754 mmHg 59%
    04:00 +9°C° 0 mm 7 mps 754 mmHg 59%
    05:00 +9°C° 0 mm 7 mps 754 mmHg 60%
    06:00 +10°C° 0 mm 8 mps 754 mmHg 61%
    07:00 +11°C° 0 mm 8 mps 754 mmHg 62%
    08:00 +12°C° 0 mm 8 mps 754 mmHg 60%
    09:00 +15°C° 0 mm 8 mps 754 mmHg 59%
    10:00 +16°C° 0 mm 8 mps 754 mmHg 57%
    11:00 +17°C° 0 mm 8 mps 754 mmHg 55%
    12:00 +18°C° 0 mm 8 mps 753 mmHg 54%
    13:00 +20°C° 0 mm 8 mps 753 mmHg 53%
    14:00 +20°C° 0 mm 8 mps 753 mmHg 54%
    15:00 +20°C° 0 mm 8 mps 753 mmHg 54%
    16:00 +20°C° 0 mm 7 mps 753 mmHg 55%
    17:00 +19°C° 0 mm 6 mps 753 mmHg 59%
    18:00 +17°C° 0 mm 6 mps 753 mmHg 64%
    19:00 +16°C° 0 mm 5 mps 753 mmHg 68%
    20:00 +15°C° 0 mm 5 mps 753 mmHg 70%
    21:00 +14°C° 0 mm 5 mps 753 mmHg 71%
    22:00 +13°C° 0 mm 5 mps 753 mmHg 73%
    23:00 +13°C° 0 mm 5 mps 753 mmHg 75%

    Tomorrow, 25 April, Thursday

    Time Temperature Precipitation Wind Pressure Humidity
    00:00 +13°C° 0 mm 4 mps 753 mmHg 78%
    01:00 +12°C° 0 mm 4 mps 753 mmHg 80%
    02:00 +12°C° 0 mm 4 mps 753 mmHg 82%
    03:00 +12°C° 0 mm 4 mps 753 mmHg 84%
    04:00 +12°C° 0 mm 4 mps 753 mmHg 86%
    05:00 +13°C° 0 mm 4 mps 753 mmHg 82%
    06:00 +14°C° 0 mm 5 mps 753 mmHg 78%
    07:00 +15°C° 0 mm 5 mps 753 mmHg 75%
    08:00 +17°C° 0 mm 5 mps 753 mmHg 69%
    09:00 +20°C° 0 mm 5 mps 753 mmHg 63%
    10:00 +22°C° 0 mm 5 mps 753 mmHg 57%
    11:00 +23°C° 0 mm 5 mps 752 mmHg 54%
    12:00 +23°C° 0 mm 5 mps 752 mmHg 51%
    13:00 +25°C° 0 mm 5 mps 752 mmHg 48%
    14:00 +25°C° 0 mm 4 mps 752 mmHg 50%
    15:00 +23°C° 0 mm 4 mps 752 mmHg 52%
    16:00 +22°C° 0 mm 3 mps 751 mmHg 55%
    17:00 +21°C° 0 mm 3 mps 751 mmHg 60%
    18:00 +19°C° 0 mm 2 mps 751 mmHg 64%
    19:00 +19°C° 0 mm 1 mps 751 mmHg 69%
    20:00 +18°C° 0 mm 2 mps 751 mmHg 69%
    21:00 +18°C° 0 mm 2 mps 752 mmHg 68%
    22:00 +18°C° 0 mm 2 mps 752 mmHg 67%
    23:00 +17°C° 0 mm 2 mps 752 mmHg 70%

    Day after tomorrow, 26 April, Friday

    Time Temperature Precipitation Wind Pressure Humidity
    00:00 +17°C° 0 mm 2 mps 751 mmHg 73%
    01:00 +16°C° 0 mm 3 mps 751 mmHg 77%
    02:00 +15°C° 0 mm 2 mps 751 mmHg 78%
    03:00 +15°C° 0 mm 2 mps 751 mmHg 79%
    04:00 +14°C° 0 mm 2 mps 751 mmHg 80%
    05:00 +16°C° 0 mm 2 mps 751 mmHg 76%
    06:00 +17°C° 0 mm 3 mps 750 mmHg 72%
    07:00 +18°C° 0 mm 3 mps 750 mmHg 68%
    08:00 +20°C° 0 mm 3 mps 750 mmHg 62%
    09:00 +22°C° 0 mm 3 mps 750 mmHg 56%
    10:00 +25°C° 0 mm 3 mps 750 mmHg 50%
    11:00 +26°C° 0 mm 3 mps 749 mmHg 47%
    12:00 +27°C° 0 mm 3 mps 749 mmHg 43%
    13:00 +27°C° 0 mm 3 mps 749 mmHg 40%
    14:00 +27°C° 0 mm 2 mps 748 mmHg 42%
    15:00 +26°C° 0 mm 2 mps 748 mmHg 45%
    16:00 +25°C° 0 mm 2 mps 747 mmHg 48%
    17:00 +24°C° 0 mm 2 mps 747 mmHg 51%
    18:00 +23°C° 0 mm 2 mps 747 mmHg 55%
    19:00 +20°C° 0 mm 2 mps 747 mmHg 58%
    20:00 +20°C° 0 mm 2 mps 748 mmHg 60%
    21:00 +19°C° 0 mm 2 mps 748 mmHg 61%
    22:00 +18°C° 0 mm 2 mps 748 mmHg 62%
    23:00 +18°C° 0 mm 2 mps 748 mmHg 65%

    27 April, Saturday

    Time Temperature Precipitation Wind Pressure Humidity
    00:00 +17°C° 0 mm 2 mps 747 mmHg 68%
    01:00 +17°C° 0 mm 2 mps 747 mmHg 71%
    02:00 +16°C° 0 mm 2 mps 747 mmHg 73%
    03:00 +16°C° 0 mm 3 mps 747 mmHg 76%
    04:00 +16°C° 0 mm 3 mps 747 mmHg 79%
    05:00 +15°C° 0 mm 4 mps 747 mmHg 75%
    06:00 +16°C° 0 mm 5 mps 747 mmHg 71%
    07:00 +16°C° 0 mm 6 mps 747 mmHg 67%
    08:00 +17°C° 0 mm 6 mps 747 mmHg 67%
    09:00 +19°C° 0 mm 6 mps 747 mmHg 68%
    10:00 +20°C° 0 mm 6 mps 747 mmHg 68%
    11:00 +20°C° 0 mm 6 mps 747 mmHg 68%
    12:00 +20°C° 0 mm 6 mps 747 mmHg 68%
    13:00 +20°C° 0 mm 6 mps 747 mmHg 69%
    14:00 +20°C° 0.1 mm 6 mps 747 mmHg 68%
    15:00 +20°C° 0.1 mm 5 mps 747 mmHg 67%
    16:00 +20°C° 0.1 mm 5 mps 748 mmHg 66%
    17:00 +17°C° 0 mm 5 mps 748 mmHg 71%
    18:00 +16°C° 0 mm 5 mps 748 mmHg 76%
    19:00 +14°C° 0 mm 5 mps 749 mmHg 81%
    20:00 +13°C° 0 mm 5 mps 749 mmHg 80%
    21:00 +12°C° 0 mm 5 mps 750 mmHg 79%
    22:00 +10°C° 0 mm 5 mps 750 mmHg 78%
    23:00 +10°C° 0 mm 4 mps 751 mmHg 80%

    28 April, Sunday

    Time Temperature Precipitation Wind Pressure Humidity
    00:00 +8°C° 0 mm 4 mps 751 mmHg 82%
    01:00 +8°C° 0 mm 4 mps 752 mmHg 83%
    02:00 +7°C° 0 mm 4 mps 752 mmHg 84%
    03:00 +8°C° 0 mm 3 mps 752 mmHg 84%
    04:00 +8°C° 0 mm 3 mps 752 mmHg 85%
    05:00 +8°C° 0 mm 4 mps 752 mmHg 83%
    06:00 +8°C° 0 mm 4 mps 753 mmHg 81%
    07:00 +10°C° 0 mm 4 mps 753 mmHg 79%
    08:00 +11°C° 0 mm 4 mps 753 mmHg 76%
    09:00 +12°C° 0 mm 4 mps 753 mmHg 72%
    10:00 +13°C° 0 mm 4 mps 754 mmHg 69%
    11:00 +14°C° 0 mm 4 mps 754 mmHg 66%
    12:00 +14°C° 0 mm 4 mps 754 mmHg 64%
    13:00 +15°C° 0 mm 4 mps 754 mmHg 62%
    14:00 +15°C° 0 mm 4 mps 754 mmHg 63%
    15:00 +15°C° 0 mm 4 mps 753 mmHg 64%
    16:00 +15°C° 0 mm 4 mps 753 mmHg 65%
    17:00 +14°C° 0 mm 4 mps 753 mmHg 70%
    18:00 +13°C° 0 mm 3 mps 754 mmHg 75%
    19:00 +12°C° 0 mm 3 mps 754 mmHg 79%
    20:00 +12°C° 0 mm 3 mps 754 mmHg 78%
    21:00 +12°C° 0 mm 4 mps 754 mmHg 77%
    22:00 +12°C° 0 mm 4 mps 754 mmHg 76%
    23:00 +12°C° 0 mm 4 mps 754 mmHg 78%

    29 April, Monday

    Time Temperature Precipitation Wind Pressure Humidity
    00:00 +12°C° 0 mm 4 mps 754 mmHg 80%
    01:00 +12°C° 0 mm 4 mps 754 mmHg 82%
    02:00 +12°C° 0.1 mm 4 mps 753 mmHg 86%
    03:00 +12°C° 0.1 mm 4 mps 753 mmHg 90%
    04:00 +11°C° 0.1 mm 4 mps 753 mmHg 94%
    05:00 +12°C° 0.3 mm 4 mps 753 mmHg 93%
    06:00 +12°C° 0.3 mm 4 mps 753 mmHg 93%
    07:00 +13°C° 0.3 mm 4 mps 753 mmHg 92%
    08:00 +14°C° 0.1 mm 3 mps 753 mmHg 90%
    09:00 +16°C° 0.1 mm 3 mps 753 mmHg 87%
    10:00 +17°C° 0.1 mm 3 mps 753 mmHg 84%
    11:00 +18°C° 0.3 mm 4 mps 753 mmHg 82%
    12:00 +18°C° 0.3 mm 4 mps 753 mmHg 79%
    13:00 +19°C° 0.3 mm 5 mps 752 mmHg 77%
    14:00 +19°C° 0.2 mm 5 mps 752 mmHg 75%
    15:00 +19°C° 0.2 mm 6 mps 752 mmHg 72%
    16:00 +19°C° 0.2 mm 6 mps 752 mmHg 70%
    17:00 +16°C° 0 mm 5 mps 752 mmHg 75%
    18:00 +15°C° 0 mm 4 mps 752 mmHg 80%
    19:00 +13°C° 0 mm 3 mps 753 mmHg 85%
    20:00 +13°C° 0 mm 3 mps 753 mmHg 85%
    21:00 +13°C° 0 mm 3 mps 753 mmHg 86%
    22:00 +13°C° 0 mm 3 mps 753 mmHg 86%
    23:00 +13°C° 0 mm 3 mps 753 mmHg 87%
    Show more